Regional Weather Roundup
Issued by NWS Bismarck, ND

Home | Current Version | Previous Version | Text Only | Print | Product List | Glossary On
Versions: 1 2 3 4 5 6 7 8 9 10 11 12 13 14 15 16 17 18 19 20 21 22 23 24 25 26 27 28 29 30 31 32 33 34 35 36 37 38 39 40 41 42 43 44 45 46 47 48 49 50
000
ASUS43 KBIS 050802
RWRBIS

NWR BROADCAST TEXT
NATIONAL WEATHER SERVICE BISMARCK ND
300 AM CDT WED AUG 05 2015

NOTE: "FAIR" INDICATES FEW OR NO CLOUDS BELOW 12,000 FEET WITH NO
SIGNIFICANT WEATHER AND/OR OBSTRUCTIONS TO VISIBILITY.


CITY           SKY/WX    TMP DP  RH WIND       PRES   REMARKS
WILLISTON      CLOUDY    70  60  70 CALM      29.93F
MINOT          CLOUDY    63  54  72 SE10      29.95F
MINOT AFB      CLOUDY    61  58  88 SE10      29.94F
BISMARCK       CLOUDY    64  58  80 E6        29.99S
DICKINSON      CLOUDY    62  59  90 CALM      29.95F
GARRISON         N/A     65  60  84 SE8       29.97S
HETTINGER ARPT CLOUDY    64  61  90 CALM      30.00R
JAMESTOWN      PTCLDY    58  53  84 E3        30.02F
HAZEN          FAIR      66  59  77 S10       29.97F
OAKES            N/A     57  57 100 E8        30.02F
STANLEY        FAIR      63  61  94 CALM      29.96S
$$

CITY           SKY/WX    TMP DP  RH WIND       PRES   REMARKS
GRAND FORKS    PTCLDY    57  52  83 CALM      30.04R
GRAND FORKS AF PTCLDY    51  50  95 CALM      30.04S
DEVILS LAKE    PTCLDY    61  52  72 SE9       30.03F
FARGO          CLEAR     57  52  83 E5        30.03S
CAVALIER       FAIR      55  54  94 CALM      30.05S
GRAFTON        FAIR      55  55 100 CALM      30.06R
GWINNER          N/A     55  55 100 CALM      30.04F
LANGDON        FAIR      55  52  88 SE6       30.06S
$$

CITY           SKY/WX    TMP DP  RH WIND       PRES   REMARKS
ABERDEEN       PTCLDY    60  56  86 SE6       30.01F
MOBRIDGE       PTCLDY    69  64  84 S10       29.97R
RAPID CITY     CLOUDY    64  61  90 SE3       30.00F
GLASGOW        PTCLDY    63  60  90 SE8       29.90R
SIDNEY         CLOUDY   N/A N/A N/A N5        29.89F
WOLF POINT     CLOUDY    66  63  90 E10       29.89F
GLENDIVE         N/A    N/A N/A N/A MISG        N/A
MILES CITY     CLEAR     60  60 100 S6        29.94S
BAKER          CLOUDY    62  60  93 S6        29.97S
$$

CITY           SKY/WX    TMP DP  RH WIND       PRES   REMARKS
BILLINGS       PTCLDY    61  52  72 CALM      29.99F
GREAT FALLS    PTCLDY    61  50  67 SW12      29.93F
$$




USA.gov is the U.S. government's official web portal to all federal, state and local government web resources and services.